Previsão horária em Aberlour

Hoje, 18 Maio, Terça-feira

Tempo Temperatura Precipitação Vento Pressão Humidade
00:00 +7°C° 0.1 mm 1 m/s 739 mmHg 95%
01:00 +7°C° 0 mm 1 m/s 739 mmHg 95%
02:00 +6°C° 0 mm 2 m/s 739 mmHg 94%
03:00 +6°C° 0 mm 2 m/s 739 mmHg 94%
04:00 +7°C° 0 mm 2 m/s 739 mmHg 91%
05:00 +7°C° 0 mm 2 m/s 739 mmHg 88%
06:00 +8°C° 0 mm 2 m/s 740 mmHg 85%
07:00 +8°C° 0 mm 2 m/s 740 mmHg 80%
08:00 +9°C° 0 mm 2 m/s 740 mmHg 75%
09:00 +9°C° 0 mm 2 m/s 740 mmHg 70%
10:00 +10°C° 0.1 mm 2 m/s 740 mmHg 66%
11:00 +12°C° 0.1 mm 2 m/s 741 mmHg 62%
12:00 +12°C° 0.1 mm 2 m/s 741 mmHg 59%
13:00 +12°C° 0.1 mm 2 m/s 741 mmHg 58%
14:00 +12°C° 0.1 mm 3 m/s 741 mmHg 58%
15:00 +12°C° 0.1 mm 3 m/s 741 mmHg 58%
16:00 +11°C° 0.1 mm 3 m/s 742 mmHg 65%
17:00 +10°C° 0.1 mm 3 m/s 742 mmHg 72%
18:00 +9°C° 0.1 mm 3 m/s 742 mmHg 80%
19:00 +8°C° 0.1 mm 3 m/s 743 mmHg 84%
20:00 +7°C° 0.1 mm 2 m/s 743 mmHg 89%
21:00 +7°C° 0.1 mm 2 m/s 743 mmHg 94%
22:00 +6°C° 0.1 mm 2 m/s 743 mmHg 94%
23:00 +6°C° 0.1 mm 2 m/s 744 mmHg 94%

Amanhã, 19 Maio, Quarta-feira

Tempo Temperatura Precipitação Vento Pressão Humidade
00:00 +6°C° 0.1 mm 2 m/s 744 mmHg 94%
01:00 +6°C° 0.1 mm 2 m/s 744 mmHg 95%
02:00 +5°C° 0.1 mm 2 m/s 744 mmHg 95%
03:00 +5°C° 0.1 mm 2 m/s 744 mmHg 95%
04:00 +5°C° 0.2 mm 2 m/s 744 mmHg 95%
05:00 +5°C° 0.2 mm 2 m/s 745 mmHg 96%
06:00 +5°C° 0.2 mm 2 m/s 745 mmHg 96%
07:00 +5°C° 0.1 mm 2 m/s 745 mmHg 95%
08:00 +5°C° 0.1 mm 2 m/s 746 mmHg 94%
09:00 +5°C° 0.1 mm 2 m/s 746 mmHg 92%
10:00 +5°C° 0 mm 2 m/s 746 mmHg 88%
11:00 +6°C° 0 mm 2 m/s 746 mmHg 84%
12:00 +6°C° 0 mm 2 m/s 746 mmHg 80%
13:00 +7°C° 0 mm 3 m/s 747 mmHg 74%
14:00 +8°C° 0 mm 3 m/s 747 mmHg 67%
15:00 +9°C° 0 mm 3 m/s 747 mmHg 61%
16:00 +9°C° 0 mm 3 m/s 747 mmHg 62%
17:00 +8°C° 0 mm 3 m/s 747 mmHg 63%
18:00 +8°C° 0 mm 3 m/s 747 mmHg 63%
19:00 +7°C° 0 mm 3 m/s 748 mmHg 70%
20:00 +6°C° 0 mm 2 m/s 748 mmHg 76%
21:00 +5°C° 0 mm 2 m/s 749 mmHg 83%
22:00 +5°C° 0 mm 2 m/s 749 mmHg 82%
23:00 +6°C° 0 mm 1 m/s 749 mmHg 81%

Depois de amanhã, 20 Maio, Quinta-feira

Tempo Temperatura Precipitação Vento Pressão Humidade
00:00 +6°C° 0 mm 1 m/s 749 mmHg 80%
01:00 +6°C° 0 mm 1 m/s 749 mmHg 81%
02:00 +5°C° 0 mm 1 m/s 749 mmHg 81%
03:00 +5°C° 0 mm 1 m/s 749 mmHg 81%
04:00 +6°C° 0 mm 1 m/s 749 mmHg 80%
05:00 +6°C° 0 mm 1 m/s 748 mmHg 79%
06:00 +6°C° 0 mm 1 m/s 748 mmHg 78%
07:00 +7°C° 0 mm 1 m/s 748 mmHg 78%
08:00 +6°C° 0 mm 2 m/s 748 mmHg 79%
09:00 +6°C° 0 mm 2 m/s 748 mmHg 79%
10:00 +7°C° 0 mm 2 m/s 747 mmHg 77%
11:00 +8°C° 0 mm 3 m/s 747 mmHg 74%
12:00 +9°C° 0 mm 3 m/s 747 mmHg 72%
13:00 +10°C° 0 mm 4 m/s 746 mmHg 70%
14:00 +10°C° 0 mm 4 m/s 745 mmHg 68%
15:00 +10°C° 0 mm 5 m/s 744 mmHg 66%
16:00 +9°C° 0.1 mm 5 m/s 743 mmHg 74%
17:00 +8°C° 0.1 mm 5 m/s 743 mmHg 81%
18:00 +7°C° 0.1 mm 5 m/s 742 mmHg 89%
19:00 +7°C° 0.3 mm 5 m/s 741 mmHg 90%
20:00 +6°C° 0.3 mm 5 m/s 740 mmHg 90%
21:00 +6°C° 0.3 mm 5 m/s 739 mmHg 91%
22:00 +6°C° 0.5 mm 5 m/s 738 mmHg 92%
23:00 +6°C° 0.5 mm 5 m/s 737 mmHg 93%

21 Maio, Sexta-feira

Tempo Temperatura Precipitação Vento Pressão Humidade
00:00 +6°C° 0.5 mm 5 m/s 736 mmHg 94%
01:00 +6°C° 0.2 mm 4 m/s 735 mmHg 95%
02:00 +6°C° 0.2 mm 4 m/s 734 mmHg 96%
03:00 +7°C° 0.2 mm 3 m/s 733 mmHg 97%
04:00 +7°C° 0 mm 3 m/s 733 mmHg 95%
05:00 +8°C° 0 mm 3 m/s 732 mmHg 94%
06:00 +8°C° 0 mm 2 m/s 731 mmHg 93%
07:00 +9°C° 0 mm 3 m/s 731 mmHg 84%
08:00 +10°C° 0 mm 3 m/s 731 mmHg 76%
09:00 +11°C° 0 mm 3 m/s 730 mmHg 67%
10:00 +12°C° 0 mm 4 m/s 730 mmHg 64%
11:00 +12°C° 0 mm 4 m/s 729 mmHg 60%
12:00 +13°C° 0 mm 4 m/s 729 mmHg 57%
13:00 +12°C° 0.4 mm 5 m/s 729 mmHg 66%
14:00 +10°C° 0.4 mm 5 m/s 728 mmHg 74%
15:00 +8°C° 0.4 mm 5 m/s 728 mmHg 83%
16:00 +8°C° 0.1 mm 5 m/s 728 mmHg 84%
17:00 +8°C° 0.1 mm 4 m/s 727 mmHg 85%
18:00 +8°C° 0.1 mm 4 m/s 727 mmHg 86%
19:00 +8°C° 0.1 mm 4 m/s 727 mmHg 87%
20:00 +8°C° 0.1 mm 3 m/s 727 mmHg 88%
21:00 +8°C° 0.1 mm 3 m/s 727 mmHg 89%
22:00 +8°C° 0.2 mm 2 m/s 726 mmHg 92%
23:00 +7°C° 0.2 mm 2 m/s 726 mmHg 94%

22 Maio, Sábado

Tempo Temperatura Precipitação Vento Pressão Humidade
00:00 +7°C° 0.2 mm 2 m/s 726 mmHg 96%
01:00 +7°C° 0.1 mm 2 m/s 726 mmHg 97%
02:00 +7°C° 0.1 mm 2 m/s 726 mmHg 97%
03:00 +7°C° 0.1 mm 2 m/s 726 mmHg 97%
04:00 +8°C° 0 mm 2 m/s 726 mmHg 96%
05:00 +8°C° 0 mm 2 m/s 726 mmHg 94%
06:00 +8°C° 0 mm 2 m/s 726 mmHg 93%
07:00 +9°C° 0.1 mm 2 m/s 726 mmHg 90%
08:00 +9°C° 0.1 mm 3 m/s 726 mmHg 86%
09:00 +10°C° 0.1 mm 3 m/s 726 mmHg 83%
10:00 +10°C° 0.4 mm 3 m/s 726 mmHg 82%
11:00 +11°C° 0.4 mm 4 m/s 727 mmHg 81%
12:00 +11°C° 0.4 mm 4 m/s 727 mmHg 80%
13:00 +11°C° 0.4 mm 4 m/s 727 mmHg 81%
14:00 +11°C° 0.4 mm 4 m/s 727 mmHg 83%
15:00 +10°C° 0.4 mm 4 m/s 727 mmHg 84%
16:00 +10°C° 0.2 mm 3 m/s 728 mmHg 86%
17:00 +10°C° 0.2 mm 3 m/s 728 mmHg 88%
18:00 +9°C° 0.2 mm 3 m/s 728 mmHg 89%
19:00 +9°C° 0.1 mm 2 m/s 729 mmHg 92%
20:00 +8°C° 0.1 mm 2 m/s 729 mmHg 95%
21:00 +8°C° 0.1 mm 1 m/s 729 mmHg 98%
22:00 +8°C° 0.1 mm 1 m/s 730 mmHg 98%
23:00 +8°C° 0.1 mm 1 m/s 730 mmHg 98%

23 Maio, Domingo

Tempo Temperatura Precipitação Vento Pressão Humidade
00:00 +8°C° 0.1 mm 1 m/s 730 mmHg 98%
01:00 +8°C° 0.1 mm 1 m/s 730 mmHg 97%
02:00 +7°C° 0.1 mm 2 m/s 730 mmHg 97%
03:00 +7°C° 0.1 mm 2 m/s 731 mmHg 97%
04:00 +7°C° 0.1 mm 2 m/s 731 mmHg 95%
05:00 +8°C° 0.1 mm 2 m/s 731 mmHg 94%
06:00 +8°C° 0.1 mm 2 m/s 731 mmHg 92%
07:00 +9°C° 0.1 mm 3 m/s 731 mmHg 87%
08:00 +10°C° 0.1 mm 3 m/s 732 mmHg 81%
09:00 +11°C° 0.1 mm 4 m/s 732 mmHg 76%
10:00 +11°C° 0.2 mm 4 m/s 732 mmHg 77%
11:00 +11°C° 0.2 mm 4 m/s 732 mmHg 78%
12:00 +10°C° 0.2 mm 5 m/s 732 mmHg 79%
13:00 +9°C° 0.4 mm 5 m/s 733 mmHg 82%
14:00 +8°C° 0.4 mm 5 m/s 733 mmHg 84%
15:00 +8°C° 0.4 mm 5 m/s 733 mmHg 87%
16:00 +7°C° 0.3 mm 5 m/s 733 mmHg 86%
17:00 +7°C° 0.3 mm 4 m/s 734 mmHg 86%
18:00 +8°C° 0.3 mm 3 m/s 734 mmHg 85%
19:00 +7°C° 0.1 mm 2 m/s 734 mmHg 86%
20:00 +8°C° 0.1 mm 1 m/s 734 mmHg 88%
21:00 +6°C° 0.1 mm 0 m/s 733 mmHg 89%
22:00 +7°C° 0.1 mm 1 m/s 733 mmHg 89%
23:00 +7°C° 0.1 mm 1 m/s 733 mmHg 89%
Mostrar mais

Necessitamos do seu Consentimento

A Meteoprog e os seus Fornecedores de Serviços podem armazenar e aceder a dados pessoais como cookies, identificadores do dispositivo ou outras tecnologias semelhantes existentes no seu dispositivo e processar estes dados para personalizar conteúdos e anúncios, assim como funcionalidades nas redes sociais e análise de tráfego.

  • Armazenar e/ou aceder a informações no seu dispositivo

    Os cookies, identificadores do dispositivo ou outras informações podem ser armazenados ou acedidos no seu dispositivo, para os fins acima indicados.

  • Anúncios e conteúdos personalizados, medição de anúncios e conteúdos, dados sobre o público-alvo e desenvolvimento de produtos

    Os anúncios e os conteúdos podem ser personalizados com base num perfil. Podem ser adicionados dados adicionais para uma maior personalização dos anúncios e dos conteúdos. A eficácia dos anúncios e dos conteúdos pode ser medida. Podem ser obtidas informações sobre o público que visualizou os anúncios e os conteúdos. Estes dados podem ser usados para desenvolver ou melhorar sistemas, softwares ou a experiência do utilizador.

Ao clicar em "Eu concordo”, permitirá o uso de cookies, identificadores do dispositivo e web beacons mencionados ou outras tecnologias semelhantes. As configurações do navegador do seu dispositivo podem ser alteradas.

Para certos fins, podem ser invocados interesses legítimos ao invés de consentimento. Pode ler mais informação sobre este assunto na nossa Política de Privacidade e Cookies.